AZA335 LIRF-LPPT

Flight info

Callsign AZA335
Flight time N/A
Altitude 31000
Route SOSAK5AXESINO8H/25 ESINO DCT ABIDU DCT EPIKU/N0496F320 DCT GINOX DCT KIFMI DCT ELVOP DCT MUREN/N0499F310 M601 BCN DCT ANTON DCT XIKEN DCT OSLAP DCT SALAS DCT RAMON DCT NEXAS DCT DISVU DCT ADUXO N975 PALIO DCT AKOKI DCT GOTOR DCT TLD DCT NATPA DCT MELON DCT CCS DCT ELVAR DCT UPULO
Aircraft B742/H-SDFHIRUWXY/L

Departure

Time N/A
Airport Rome–Fiumicino Leonardo da Vinci International Airport (LIRF)

Arrival

Time 2026-05-05 20:24
Airport Lisbon Humberto Delgado Airport (LPPT)
Time Latitude Longitude Altitude Speed Heading
2026-05-05 19:13 40.91489 -0.63014 32953 ft 421 kts 251°
2026-05-05 19:14 40.89490 -0.70319 32951 ft 421 kts 250°
2026-05-05 19:14 40.87492 -0.77590 32961 ft 421 kts 250°
2026-05-05 19:15 40.85488 -0.84853 32961 ft 421 kts 250°
2026-05-05 19:15 40.83478 -0.92119 32971 ft 422 kts 251°
2026-05-05 19:16 40.81466 -0.99370 32967 ft 421 kts 251°
2026-05-05 19:16 40.79444 -1.06630 32960 ft 422 kts 251°
2026-05-05 19:17 40.77416 -1.13871 32959 ft 420 kts 251°
2026-05-05 19:17 40.75424 -1.21130 32985 ft 423 kts 251°
2026-05-05 19:18 40.73420 -1.28385 32972 ft 420 kts 251°
2026-05-05 19:18 40.71409 -1.35593 32973 ft 422 kts 251°
2026-05-05 19:19 40.69378 -1.42821 32964 ft 419 kts 251°
2026-05-05 19:19 40.67338 -1.50050 32967 ft 422 kts 251°
2026-05-05 19:20 40.65308 -1.57269 32984 ft 421 kts 251°
2026-05-05 19:20 40.63299 -1.64513 32965 ft 422 kts 252°
2026-05-05 19:21 40.61292 -1.71768 32980 ft 423 kts 251°
2026-05-05 19:21 40.59252 -1.79024 32972 ft 422 kts 251°
2026-05-05 19:22 40.57189 -1.86227 32973 ft 423 kts 251°
2026-05-05 19:22 40.55101 -1.93451 32967 ft 423 kts 250°
2026-05-05 19:23 40.53004 -2.00668 32987 ft 425 kts 251°
2026-05-05 19:23 40.50896 -2.07892 32966 ft 423 kts 251°
2026-05-05 19:24 40.48785 -2.15104 32970 ft 424 kts 250°
2026-05-05 19:24 40.46671 -2.22307 32973 ft 423 kts 251°
2026-05-05 19:25 40.44547 -2.29481 32977 ft 422 kts 251°
2026-05-05 19:25 40.42434 -2.36641 32967 ft 422 kts 251°
2026-05-05 19:26 40.40330 -2.43788 32964 ft 421 kts 251°
2026-05-05 19:26 40.38239 -2.50966 32976 ft 423 kts 252°
2026-05-05 19:27 40.36436 -2.58280 32967 ft 422 kts 255°
2026-05-05 19:27 40.34786 -2.65649 32979 ft 422 kts 255°
2026-05-05 19:28 40.33168 -2.73053 32963 ft 423 kts 255°
2026-05-05 19:28 40.31557 -2.80444 32974 ft 422 kts 255°
2026-05-05 19:29 40.29944 -2.87826 32964 ft 422 kts 255°
2026-05-05 19:29 40.28324 -2.95220 32953 ft 423 kts 255°
2026-05-05 19:30 40.26700 -3.02604 32965 ft 423 kts 255°
2026-05-05 19:30 40.25069 -3.09981 32964 ft 422 kts 255°
2026-05-05 19:31 40.23437 -3.17341 32965 ft 424 kts 255°
2026-05-05 19:31 40.21790 -3.24748 32965 ft 424 kts 255°
2026-05-05 19:32 40.20144 -3.32138 32969 ft 424 kts 255°
2026-05-05 19:32 40.18492 -3.39527 32980 ft 425 kts 255°
2026-05-05 19:33 40.16836 -3.46917 32984 ft 424 kts 255°
2026-05-05 19:33 40.15174 -3.54305 32984 ft 425 kts 255°
2026-05-05 19:34 40.13504 -3.61701 32986 ft 426 kts 256°
2026-05-05 19:35 40.10982 -3.72819 32985 ft 425 kts 255°
2026-05-05 19:35 40.09298 -3.80213 32980 ft 427 kts 255°
2026-05-05 19:36 40.07606 -3.87612 32970 ft 425 kts 255°
2026-05-05 19:36 40.05905 -3.95010 32973 ft 427 kts 255°
2026-05-05 19:37 40.04195 -4.02398 32968 ft 426 kts 255°
2026-05-05 19:37 40.02497 -4.09812 32970 ft 428 kts 255°
2026-05-05 19:38 40.00790 -4.17210 32971 ft 426 kts 255°
2026-05-05 19:38 39.99071 -4.24599 32969 ft 427 kts 255°
2026-05-05 19:39 39.97376 -4.31996 32969 ft 427 kts 256°
2026-05-05 19:39 39.95802 -4.39442 32966 ft 427 kts 257°
2026-05-05 19:40 39.94272 -4.46902 32962 ft 427 kts 257°
2026-05-05 19:40 39.92746 -4.54377 32958 ft 428 kts 257°
2026-05-05 19:41 39.91217 -4.61851 32968 ft 428 kts 257°
2026-05-05 19:41 39.89680 -4.69350 32964 ft 429 kts 256°
2026-05-05 19:42 39.88135 -4.76858 32955 ft 430 kts 256°
2026-05-05 19:42 39.86584 -4.84369 32954 ft 430 kts 256°
2026-05-05 19:43 39.85028 -4.91877 32950 ft 431 kts 256°
2026-05-05 19:43 39.83463 -4.99402 32950 ft 431 kts 256°
2026-05-05 19:44 39.81896 -5.06904 32953 ft 430 kts 256°
2026-05-05 19:44 39.80327 -5.14395 32954 ft 430 kts 256°
2026-05-05 19:45 39.78755 -5.21872 32957 ft 429 kts 256°
2026-05-05 19:45 39.77177 -5.29345 32962 ft 431 kts 256°
2026-05-05 19:46 39.75590 -5.36835 32960 ft 430 kts 256°
2026-05-05 19:46 39.74004 -5.44303 32965 ft 430 kts 256°
2026-05-05 19:47 39.72412 -5.51772 32973 ft 430 kts 256°
2026-05-05 19:47 39.70811 -5.59260 32967 ft 432 kts 256°
2026-05-05 19:48 39.69211 -5.66741 32976 ft 431 kts 256°
2026-05-05 19:48 39.67593 -5.74267 32973 ft 433 kts 256°
2026-05-05 19:49 39.65961 -5.81761 32975 ft 432 kts 255°
2026-05-05 19:49 39.64322 -5.89264 32976 ft 433 kts 256°
2026-05-05 19:50 39.62709 -5.96652 32975 ft 433 kts 256°
2026-05-05 19:50 39.61074 -6.04139 32970 ft 431 kts 256°
2026-05-05 19:51 39.59437 -6.11612 32976 ft 433 kts 256°
2026-05-05 19:51 39.57787 -6.19121 32976 ft 432 kts 256°
2026-05-05 19:52 39.56153 -6.26522 32968 ft 418 kts 256°
2026-05-05 19:52 39.55366 -6.30076 32968 ft 403 kts 256°
2026-05-05 19:52 39.54605 -6.33505 32974 ft 393 kts 256°
2026-05-05 19:53 39.53031 -6.40313 32952 ft 399 kts 252°
2026-05-05 19:53 39.51995 -6.43689 32605 ft 410 kts 249°
2026-05-05 19:53 39.50827 -6.47082 32111 ft 413 kts 248°
2026-05-05 19:53 39.49613 -6.50423 31590 ft 410 kts 247°
2026-05-05 19:54 39.48383 -6.53718 31063 ft 406 kts 247°
2026-05-05 19:54 39.47149 -6.56978 30529 ft 402 kts 247°
2026-05-05 19:54 39.45921 -6.60203 29976 ft 399 kts 246°
2026-05-05 19:54 39.44693 -6.63411 29422 ft 396 kts 246°
2026-05-05 19:55 39.43474 -6.66589 28864 ft 393 kts 246°
2026-05-05 19:55 39.42272 -6.69753 28311 ft 391 kts 246°
2026-05-05 19:55 39.41087 -6.72891 27754 ft 388 kts 246°
2026-05-05 19:55 39.39904 -6.76008 27200 ft 386 kts 246°
2026-05-05 19:56 39.38716 -6.79109 26650 ft 384 kts 246°
2026-05-05 19:56 39.37535 -6.82179 26100 ft 382 kts 246°
2026-05-05 19:56 39.36353 -6.85238 25555 ft 380 kts 246°
2026-05-05 19:56 39.35176 -6.88279 25007 ft 378 kts 246°
2026-05-05 19:57 39.34001 -6.91306 24450 ft 376 kts 246°
2026-05-05 19:57 39.32833 -6.94312 23907 ft 375 kts 246°
2026-05-05 19:57 39.31669 -6.97305 23367 ft 373 kts 246°
2026-05-05 19:57 39.30511 -7.00281 22831 ft 371 kts 246°
2026-05-05 19:58 39.29357 -7.03241 22301 ft 370 kts 246°
2026-05-05 19:58 39.28208 -7.06188 21771 ft 368 kts 246°
2026-05-05 19:58 39.27064 -7.09115 21324 ft 364 kts 246°
2026-05-05 19:58 39.25934 -7.12001 20933 ft 359 kts 246°
2026-05-05 19:59 39.24819 -7.14850 20542 ft 354 kts 246°
2026-05-05 19:59 39.23714 -7.17671 20192 ft 350 kts 246°
2026-05-05 19:59 39.22621 -7.20444 20047 ft 345 kts 246°
2026-05-05 19:59 39.21517 -7.23206 20021 ft 351 kts 246°
2026-05-05 20:00 39.20383 -7.26015 19857 ft 357 kts 246°
2026-05-05 20:00 39.19230 -7.28849 19611 ft 357 kts 245°
2026-05-05 20:00 39.18079 -7.31668 19369 ft 354 kts 245°
2026-05-05 20:00 39.16938 -7.34455 19121 ft 351 kts 245°
2026-05-05 20:01 39.15805 -7.37221 18885 ft 350 kts 245°
2026-05-05 20:01 39.14671 -7.39992 18637 ft 349 kts 245°
2026-05-05 20:01 39.13539 -7.42754 18396 ft 348 kts 245°
2026-05-05 20:01 39.12412 -7.45501 18140 ft 347 kts 245°
2026-05-05 20:02 39.11287 -7.48238 17892 ft 346 kts 245°
2026-05-05 20:02 39.10162 -7.50976 17637 ft 345 kts 245°
2026-05-05 20:02 39.09042 -7.53701 17387 ft 345 kts 245°
2026-05-05 20:02 39.07921 -7.56420 17136 ft 344 kts 245°
2026-05-05 20:03 39.06805 -7.59128 16882 ft 343 kts 245°
2026-05-05 20:03 39.05689 -7.61835 16623 ft 343 kts 246°
2026-05-05 20:03 39.04595 -7.64547 16380 ft 341 kts 246°
2026-05-05 20:03 39.03526 -7.67279 16128 ft 342 kts 246°
2026-05-05 20:04 39.02470 -7.70024 15877 ft 342 kts 246°
2026-05-05 20:04 39.01422 -7.72765 15634 ft 341 kts 247°
2026-05-05 20:04 39.00378 -7.75500 15365 ft 341 kts 247°
2026-05-05 20:04 38.99337 -7.78227 15088 ft 340 kts 247°
2026-05-05 20:05 38.98294 -7.80942 14809 ft 337 kts 246°
2026-05-05 20:05 38.97251 -7.83631 14530 ft 335 kts 246°
2026-05-05 20:05 38.96242 -7.86318 14257 ft 334 kts 248°
2026-05-05 20:05 38.95249 -7.89005 13992 ft 334 kts 248°
2026-05-05 20:06 38.94244 -7.91691 13722 ft 334 kts 247°
2026-05-05 20:06 38.93225 -7.94376 13452 ft 335 kts 247°
2026-05-05 20:06 38.92295 -7.97101 13169 ft 333 kts 251°
2026-05-05 20:06 38.91477 -7.99867 12903 ft 332 kts 252°
2026-05-05 20:07 38.90659 -8.02626 12560 ft 330 kts 252°
2026-05-05 20:07 38.89831 -8.05344 12219 ft 326 kts 251°
2026-05-05 20:07 38.88997 -8.08040 11844 ft 323 kts 251°
2026-05-05 20:07 38.88173 -8.10686 11392 ft 315 kts 251°
2026-05-05 20:08 38.87373 -8.13242 10958 ft 304 kts 251°
2026-05-05 20:08 38.86595 -8.15727 10547 ft 301 kts 251°
2026-05-05 20:08 38.85829 -8.18176 10090 ft 292 kts 251°
2026-05-05 20:08 38.85081 -8.20560 9652 ft 284 kts 251°
2026-05-05 20:09 38.84350 -8.22894 9255 ft 282 kts 251°
2026-05-05 20:09 38.83618 -8.25227 8865 ft 282 kts 251°
2026-05-05 20:09 38.82890 -8.27548 8490 ft 281 kts 251°
2026-05-05 20:09 38.82161 -8.29866 8148 ft 279 kts 251°
2026-05-05 20:10 38.81441 -8.32153 7850 ft 276 kts 251°
2026-05-05 20:10 38.80728 -8.34414 7547 ft 272 kts 251°
2026-05-05 20:10 38.80022 -8.36655 7237 ft 271 kts 251°
2026-05-05 20:10 38.79319 -8.38884 6935 ft 270 kts 251°
2026-05-05 20:11 38.78617 -8.41106 6630 ft 269 kts 251°
2026-05-05 20:11 38.77919 -8.43316 6375 ft 267 kts 251°
2026-05-05 20:11 38.77189 -8.45491 6122 ft 266 kts 249°
2026-05-05 20:11 38.76460 -8.47670 5864 ft 266 kts 250°
2026-05-05 20:12 38.75755 -8.49851 5607 ft 265 kts 251°
2026-05-05 20:12 38.75065 -8.52020 5386 ft 262 kts 251°
2026-05-05 20:12 38.74382 -8.54181 5183 ft 262 kts 252°
2026-05-05 20:12 38.73699 -8.56342 4997 ft 261 kts 252°
2026-05-05 20:13 38.73018 -8.58496 4839 ft 261 kts 252°
2026-05-05 20:13 38.72338 -8.60647 4672 ft 261 kts 252°
2026-05-05 20:13 38.71656 -8.62798 4504 ft 260 kts 252°
2026-05-05 20:13 38.70975 -8.64945 4339 ft 260 kts 252°
2026-05-05 20:14 38.70292 -8.67081 4166 ft 259 kts 251°
2026-05-05 20:14 38.69604 -8.69208 4026 ft 258 kts 251°
2026-05-05 20:14 38.68924 -8.71322 3985 ft 257 kts 251°
2026-05-05 20:14 38.68246 -8.73443 3974 ft 257 kts 251°
2026-05-05 20:15 38.67566 -8.75566 3982 ft 258 kts 251°
2026-05-05 20:15 38.66887 -8.77688 3995 ft 259 kts 252°
2026-05-05 20:15 38.66204 -8.79818 3983 ft 258 kts 251°
2026-05-05 20:15 38.65524 -8.81940 3969 ft 258 kts 251°
2026-05-05 20:16 38.64838 -8.84078 3983 ft 261 kts 251°
2026-05-05 20:16 38.64151 -8.86217 3985 ft 261 kts 251°
2026-05-05 20:16 38.63460 -8.88366 3987 ft 262 kts 251°
2026-05-05 20:16 38.62767 -8.90518 3989 ft 261 kts 251°
2026-05-05 20:17 38.62077 -8.92661 3988 ft 261 kts 251°
2026-05-05 20:17 38.61388 -8.94799 3991 ft 261 kts 251°
2026-05-05 20:17 38.60697 -8.96944 3991 ft 261 kts 251°
2026-05-05 20:17 38.60004 -8.99089 3991 ft 261 kts 251°
2026-05-05 20:18 38.59312 -9.01233 3991 ft 261 kts 251°
2026-05-05 20:18 38.58621 -9.03374 3993 ft 261 kts 251°
2026-05-05 20:18 38.57927 -9.05517 3959 ft 263 kts 251°
2026-05-05 20:18 38.57243 -9.07709 3583 ft 267 kts 256°
2026-05-05 20:19 38.57061 -9.09985 3220 ft 253 kts 287°
2026-05-05 20:19 38.57838 -9.11869 3045 ft 233 kts 321°
2026-05-05 20:19 38.59116 -9.13130 3007 ft 235 kts 321°
2026-05-05 20:19 38.60227 -9.14691 2996 ft 238 kts 309°
2026-05-05 20:20 38.61350 -9.16224 2999 ft 237 kts 321°
2026-05-05 20:20 38.62558 -9.17588 2993 ft 219 kts 322°
2026-05-05 20:20 38.63656 -9.18814 2839 ft 206 kts 322°
2026-05-05 20:20 38.64716 -9.19994 2603 ft 197 kts 322°
2026-05-05 20:21 38.65843 -9.20686 2506 ft 169 kts
2026-05-05 20:21 38.66844 -9.20128 2429 ft 163 kts 46°
2026-05-05 20:21 38.67603 -9.19096 2294 ft 155 kts 20°
2026-05-05 20:21 38.68598 -9.18775 2127 ft 147 kts 25°
2026-05-05 20:22 38.69501 -9.18153 1898 ft 147 kts
2026-05-05 20:22 38.70508 -9.17955 1822 ft 144 kts 18°
2026-05-05 20:22 38.71394 -9.17305 1603 ft 150 kts 27°
2026-05-05 20:22 38.72329 -9.16692 1369 ft 151 kts 20°
2026-05-05 20:23 38.73276 -9.16172 1235 ft 146 kts 19°
2026-05-05 20:23 38.74227 -9.15676 1007 ft 148 kts 19°
2026-05-05 20:23 38.75187 -9.15162 764 ft 150 kts 20°
2026-05-05 20:23 38.76156 -9.14645 547 ft 150 kts 18°
2026-05-05 20:24 38.77115 -9.14130 403 ft 147 kts 18°
2026-05-05 20:24 38.77982 -9.13675 385 ft 109 kts 21°
2026-05-05 20:24 38.78482 -9.13403 384 ft 46 kts 24°
2026-05-05 20:24 38.78701 -9.13286 384 ft 29 kts 23°
2026-05-05 20:25 38.78879 -9.13190 384 ft 26 kts 23°
2026-05-05 20:25 38.79038 -9.13103 384 ft 23 kts 24°
2026-05-05 20:25 38.79181 -9.13026 384 ft 21 kts 21°
2026-05-05 20:25 38.79309 -9.12961 384 ft 18 kts 22°
2026-05-05 20:26 38.79423 -9.12895 384 ft 17 kts 24°
2026-05-05 20:26 38.79533 -9.12838 384 ft 16 kts 21°
2026-05-05 20:26 38.79633 -9.12786 384 ft 14 kts 22°
2026-05-05 20:26 38.79711 -9.12786 384 ft 10 kts 323°
2026-05-05 20:27 38.79751 -9.12855 384 ft 9 kts 294°
2026-05-05 20:27 38.79769 -9.12931 384 ft 8 kts 262°
2026-05-05 20:27 38.79722 -9.12988 384 ft 11 kts 205°
2026-05-05 20:27 38.79635 -9.13035 384 ft 15 kts 203°
2026-05-05 20:28 38.79523 -9.13095 384 ft 18 kts 203°
2026-05-05 20:28 38.79394 -9.13165 384 ft 20 kts 202°
2026-05-05 20:28 38.79261 -9.13235 384 ft 20 kts 202°
2026-05-05 20:28 38.79137 -9.13302 384 ft 18 kts 203°
2026-05-05 20:29 38.79026 -9.13362 384 ft 16 kts 203°
2026-05-05 20:29 38.78927 -9.13416 384 ft 14 kts 203°
2026-05-05 20:29 38.78832 -9.13467 384 ft 14 kts 202°
2026-05-05 20:29 38.78736 -9.13518 384 ft 14 kts 203°
2026-05-05 20:30 38.78649 -9.13562 384 ft 12 kts 194°
2026-05-05 20:30 38.78569 -9.13563 384 ft 10 kts 168°
2026-05-05 20:30 38.78541 -9.13556 384 ft 0 kts 168°
2026-05-05 20:31 38.78540 -9.13556 384 ft 0 kts 168°
2026-05-05 20:31 38.78514 -9.13549 384 ft 7 kts 168°
2026-05-05 20:31 38.78432 -9.13527 384 ft 15 kts 168°
2026-05-05 20:31 38.78314 -9.13494 384 ft 18 kts 168°
2026-05-05 20:32 38.78192 -9.13460 384 ft 16 kts 168°
2026-05-05 20:32 38.78085 -9.13431 384 ft 14 kts 168°
2026-05-05 20:32 38.77994 -9.13438 384 ft 12 kts 198°
2026-05-05 20:32 38.77912 -9.13481 384 ft 13 kts 204°
2026-05-05 20:33 38.77824 -9.13529 384 ft 14 kts 202°
2026-05-05 20:33 38.77721 -9.13583 384 ft 17 kts 203°
2026-05-05 20:33 38.77598 -9.13650 384 ft 20 kts 202°
2026-05-05 20:33 38.77471 -9.13717 384 ft 18 kts 202°
2026-05-05 20:34 38.77355 -9.13780 384 ft 17 kts 203°
2026-05-05 20:34 38.77248 -9.13837 384 ft 16 kts 203°
2026-05-05 20:34 38.77147 -9.13888 384 ft 14 kts 194°
2026-05-05 20:34 38.77050 -9.13888 384 ft 13 kts 169°
2026-05-05 20:35 38.76969 -9.13866 384 ft 9 kts 168°
2026-05-05 20:35 38.76927 -9.13834 384 ft 6 kts 106°
2026-05-05 20:35 38.76932 -9.13788 384 ft 4 kts 77°
2026-05-05 20:35 38.76937 -9.13759 384 ft 2 kts 78°
2026-05-05 20:36 38.76939 -9.13751 384 ft 0 kts 78°
2026-05-05 20:36 38.76939 -9.13750 384 ft 0 kts 78°